GONETS-M 23 (54150 NORAD) Tracking and Keplerian Element Data

This shows tracking and keplerian element data for the satellite.

Feedback or suggestion? Click here.




ElementValue
Catalog54150
NameGONETS-M 23
Epoch Orbit1035
Epoch Day14.13927642
Epoch Year2023
RAAN45.0712
Inclination82.5066
Eccentricity0.0022318
Argument of Perigee70.3819
Mean Anonmoly289.9676
Mean Motion12.42833762
Decay Rate1E-07
L11 54150U 22139A 23014.13927642 .00000010 00000+0 00000+0 0 9995
L22 54150 82.5066 45.0712 0022318 70.3819 289.9676 12.42833762 10351



Live tracking and technical data element details for GONETS-M 23 (NORAD 54150). GONETS-M 23 can be tracked NOW for your location showing map with azimuth and elevation plus other details from your city location.







IsCatalogInMostPopularTable: catalog: 54150, numindb: 16
Update: records affected: 1



GetName: 54150 GONETS-M 23

Hit Count: updated at: Fri, 27 Jan 2023 21:52:14 GMT